Total_Precipitation_Accumulation
1.76 1.75 1.71 1.75 1.86 1.90 2.03 2.32 2.47 2.48 2.46 2.60 2.65 2.63 2.63 2.48 2.22 1.99 1.85 1.82 1.83 1.97 2.22 2.11 2.36 2.50 2.46 2.37 2.39 2.40 2.24 2.06 2.26 2.00 1.40 0.95 0.67 0.60 0.54 0.56 0.59 0.64 0.79
1.96 2.01 1.99 2.01 2.06 2.07 2.21 2.53 2.74 2.84 2.84 3.04 3.19 3.11 3.02 2.75 2.56 2.24 2.04 1.97 2.08 2.14 2.25 2.51 2.66 2.74 2.65 2.48 2.46 2.49 2.25 1.94 2.31 2.27 1.92 1.33 0.91 0.68 0.53 0.58 0.57 0.64 0.90
1.53 1.96 2.11 2.34 2.20 2.11 2.23 2.47 2.74 2.89 2.97 3.11 3.27 3.18 3.18 2.97 2.73 2.49 2.31 2.14 2.16 2.16 2.33 2.56 2.76 2.74 2.62 2.46 2.47 2.51 2.38 2.11 2.14 2.32 2.37 1.90 1.37 1.04 0.70 0.65 0.67 0.75 0.87
1.38 1.72 1.84 1.88 2.00 2.03 2.02 2.19 2.45 2.67 2.88 3.07 3.13 3.13 3.06 2.89 2.74 2.61 2.25 2.10 2.02 2.06 2.15 2.21 2.38 2.53 2.48 2.39 2.30 2.38 2.39 2.29 2.09 2.21 2.30 2.20 1.93 1.61 1.07 0.78 0.72 0.81 0.85
1.16 1.35 1.42 1.49 1.59 1.64 1.85 2.17 2.38 2.55 2.64 2.70 2.71 2.80 2.71 2.68 2.68 2.51 2.30 2.20 2.17 2.12 2.00 2.07 2.28 2.36 2.39 2.24 2.13 2.20 2.28 2.22 2.07 2.13 2.15 2.15 2.09 1.91 1.65 1.17 1.02 0.91 0.79
1.07 1.23 1.35 1.43 1.49 1.64 1.91 2.15 2.31 2.42 2.44 2.44 2.50 2.57 2.52 2.52 2.47 2.31 2.25 2.10 2.01 1.88 1.82 1.91 2.10 2.17 2.20 2.16 2.13 2.08 2.06 2.07 2.03 2.02 2.11 2.17 2.06 1.98 1.94 1.49 1.26 1.12 0.76
1.22 1.35 1.41 1.40 1.48 1.59 1.73 1.86 2.01 2.14 2.10 2.07 2.15 2.18 2.18 2.13 2.07 2.03 2.01 1.91 1.77 1.59 1.54 1.57 1.62 1.68 1.78 1.92 2.04 1.99 1.94 1.95 1.92 1.90 1.95 2.05 2.01 2.04 2.04 1.79 1.47 1.28 0.96
1.49 1.63 1.61 1.53 1.49 1.49 1.50 1.52 1.58 1.65 1.65 1.71 1.78 1.76 1.74 1.72 1.68 1.72 1.71 1.66 1.55 1.45 1.42 1.36 1.29 1.28 1.34 1.50 1.76 1.86 1.88 1.91 1.86 1.75 1.81 1.82 1.76 1.79 1.86 1.89 1.77 1.45 1.22
1.09 1.36 1.37 1.28 1.24 1.21 1.17 1.16 1.13 1.08 1.09 1.13 1.19 1.23 1.25 1.29 1.29 1.31 1.33 1.30 1.25 1.17 1.13 1.11 1.10 1.13 1.11 1.14 1.29 1.49 1.63 1.74 1.74 1.72 1.72 1.67 1.61 1.58 1.60 1.75 1.83 1.69 1.47
0.84 0.87 0.91 0.95 0.96 0.97 0.94 0.90 0.83 0.80 0.81 0.80 0.81 0.81 0.82 0.83 0.86 0.85 0.85 0.89 0.91 0.90 0.90 0.92 0.95 1.00 1.03 1.02 1.12 1.25 1.41 1.52 1.53 1.52 1.52 1.55 1.52 1.51 1.45 1.47 1.63 1.73 1.77
0.59 0.57 0.57 0.61 0.72 0.80 0.78 0.72 0.70 0.68 0.66 0.65 0.65 0.61 0.61 0.61 0.61 0.62 0.65 0.69 0.73 0.72 0.75 0.78 0.80 0.80 0.80 0.82 0.87 0.94 1.04 1.15 1.22 1.22 1.26 1.29 1.34 1.44 1.33 1.35 1.46 1.61 1.78
0.37 0.37 0.40 0.44 0.47 0.51 0.52 0.53 0.54 0.58 0.56 0.54 0.51 0.49 0.49 0.48 0.48 0.51 0.56 0.62 0.68 0.72 0.78 0.84 0.87 0.82 0.79 0.76 0.75 0.76 0.86 1.00 1.07 1.17 1.26 1.29 1.36 1.44 1.33 1.35 1.46 1.65 1.83
0.32 0.32 0.33 0.36 0.38 0.41 0.45 0.47 0.50 0.54 0.50 0.46 0.46 0.49 0.50 0.50 0.50 0.51 0.55 0.57 0.59 0.63 0.71 0.83 0.93 0.91 0.87 0.82 0.78 0.75 0.75 0.82 0.92 1.03 1.19 1.31 1.44 1.52 1.50 1.45 1.56 1.75 1.96
0.32 0.34 0.34 0.35 0.40 0.49 0.52 0.53 0.57 0.54 0.50 0.46 0.45 0.45 0.44 0.44 0.44 0.46 0.49 0.51 0.52 0.57 0.61 0.65 0.76 0.81 0.84 0.86 0.84 0.82 0.81 0.80 0.79 0.79 0.78 0.84 0.97 1.11 1.28 1.38 1.48 1.59 1.83
0.26 0.27 0.30 0.35 0.40 0.46 0.51 0.53 0.58 0.55 0.54 0.56 0.54 0.50 0.49 0.53 0.47 0.46 0.53 0.51 0.48 0.48 0.53 0.53 0.58 0.65 0.68 0.72 0.75 0.73 0.71 0.74 0.79 0.75 0.67 0.62 0.61 0.66 0.75 0.86 1.08 1.28 1.47
0.25 0.26 0.31 0.36 0.37 0.41 0.44 0.48 0.50 0.52 0.55 0.61 0.64 0.59 0.55 0.53 0.52 0.46 0.46 0.46 0.45 0.45 0.48 0.52 0.52 0.57 0.55 0.62 0.65 0.64 0.61 0.57 0.59 0.63 0.63 0.60 0.57 0.51 0.50 0.57 0.70 0.87 1.08
0.19 0.21 0.25 0.29 0.29 0.33 0.44 0.48 0.45 0.46 0.53 0.62 0.70 0.75 0.69 0.62 0.55 0.47 0.45 0.46 0.50 0.53 0.57 0.56 0.54 0.51 0.50 0.52 0.55 0.60 0.58 0.56 0.51 0.49 0.51 0.48 0.47 0.47 0.40 0.43 0.47 0.51 0.58
0.13 0.18 0.19 0.17 0.18 0.20 0.28 0.39 0.45 0.49 0.58 0.68 0.72 0.79 0.73 0.63 0.54 0.50 0.50 0.53 0.56 0.55 0.58 0.61 0.64 0.62 0.52 0.46 0.43 0.48 0.55 0.59 0.56 0.51 0.44 0.43 0.43 0.45 0.43 0.40 0.40 0.37 0.36
0.09 0.14 0.17 0.15 0.17 0.19 0.22 0.29 0.38 0.50 0.63 0.71 0.77 0.76 0.75 0.68 0.61 0.57 0.59 0.59 0.59 0.55 0.50 0.49 0.55 0.63 0.63 0.53 0.43 0.39 0.41 0.46 0.47 0.48 0.46 0.42 0.39 0.44 0.43 0.42 0.43 0.38 0.33
0.16 0.22 0.26 0.30 0.31 0.34 0.32 0.36 0.42 0.52 0.62 0.68 0.72 0.74 0.81 0.83 0.80 0.73 0.69 0.66 0.67 0.62 0.57 0.52 0.55 0.56 0.59 0.54 0.44 0.40 0.39 0.43 0.44 0.49 0.48 0.43 0.39 0.40 0.40 0.40 0.41 0.39 0.32
0.19 0.28 0.36 0.49 0.57 0.63 0.62 0.60 0.59 0.63 0.66 0.65 0.68 0.73 0.80 0.84 0.83 0.84 0.83 0.81 0.76 0.74 0.72 0.64 0.61 0.62 0.61 0.54 0.38 0.35 0.39 0.45 0.48 0.49 0.48 0.44 0.38 0.34 0.37 0.39 0.37 0.34 0.33
0.12 0.20 0.35 0.46 0.56 0.70 0.84 0.90 0.87 0.77 0.75 0.71 0.74 0.77 0.83 0.81 0.79 0.91 0.91 0.90 0.92 0.91 0.86 0.81 0.77 0.75 0.71 0.58 0.45 0.37 0.39 0.46 0.53 0.52 0.49 0.48 0.40 0.33 0.34 0.37 0.39 0.36 0.33
0.10 0.15 0.25 0.37 0.44 0.50 0.68 0.92 0.92 0.86 0.86 0.86 0.89 0.87 0.87 0.96 1.03 1.08 1.04 1.02 1.02 1.00 0.97 0.95 0.91 0.87 0.86 0.75 0.52 0.44 0.44 0.47 0.49 0.53 0.50 0.47 0.43 0.38 0.36 0.38 0.38 0.35 0.31
0.13 0.17 0.25 0.33 0.39 0.47 0.61 0.79 0.79 0.78 0.89 1.01 1.03 1.00 1.00 1.04 1.12 1.23 1.16 1.14 1.13 1.09 1.06 1.08 1.06 1.04 1.02 0.96 0.74 0.58 0.53 0.53 0.52 0.52 0.49 0.44 0.44 0.47 0.45 0.43 0.37 0.34 0.34
0.22 0.24 0.29 0.36 0.42 0.50 0.60 0.66 0.70 0.80 0.95 1.00 0.98 1.00 1.04 1.11 1.19 1.22 1.20 1.12 1.09 1.00 1.00 1.04 1.03 1.04 1.02 0.93 0.78 0.69 0.69 0.70 0.69 0.65 0.60 0.54 0.50 0.52 0.54 0.50 0.44 0.40 0.41
0.17 0.19 0.24 0.29 0.31 0.38 0.47 0.53 0.62 0.79 1.00 1.04 1.02 0.99 0.97 1.04 1.10 1.14 1.10 0.95 0.85 0.73 0.69 0.74 0.77 0.80 0.79 0.78 0.71 0.64 0.65 0.68 0.69 0.69 0.68 0.64 0.61 0.61 0.64 0.61 0.56 0.47 0.45